Fairfield, IL

3:47 AM CDT on July 28, 2017 (GMT -0500)
Fairfield Municipal

Weather History for KFWC - April, 2013

Change the Weather History Date:

Tuesday, April 23, 2013

  Actual Average (KEVV) Record (KEVV)
Temperature  
Mean Temperature 56 °F -  
Max Temperature 68 °F 69 °F 89 °F (1925)
Min Temperature 44 °F 49 °F 29 °F (1986)
Degree Days  
Heating Degree Days 9    
Growing Degree Days 6 (Base 50)    
Moisture  
Dew Point 52 °F    
Average Humidity 79    
Maximum Humidity 94    
Minimum Humidity 59    
Precipitation  
Precipitation 0.21 in - - ()
Sea Level Pressure  
Sea Level Pressure 29.96 in    
Wind  
Wind Speed - (North)    
Max Wind Speed -    
Max Gust Speed -    
Visibility 10 miles    
Events Rain , Thunderstorm    
Averages and records for this station are not official NWS values.
T = Trace of Precipitation, MM = Missing Value Source: NWS Daily Summary

Daily Weather History Graph

Daily Weather History Graph

Search for Another Location

Airport or City:

Trip Planner

Search our weather history database for the weather conditions in past years. The results will help you decide how hot, cold, wet, or windy it might be!

Date:

Astronomy

Apr. 23, 2013 Rise Set
Actual Time 6:06 AM CDT 7:37 PM CDT
Civil Twilight 5:38 AM CDT 8:05 PM CDT
Nautical Twilight 5:05 AM CDT 8:39 PM CDT
Astronomical Twilight 4:29 AM CDT 9:15 PM CDT
Moon 5:34 PM CDT (4/23) 4:32 AM CDT (4/23)
Length of Visible Light 14h 27m
Length of Day
13h 31m
Waxing Gibbous, 94% of the Moon is Illuminated
Apr 23
Waxing Gibbous
Apr 25
Full
May 2
Last Quarter
May 9
New
May 17
First Quarter

Hourly Weather History & Observations

Time (CDT) Temp. Dew Point Humidity Pressure Visibility Wind Dir Wind Speed Gust Speed Precip Events Conditions
12:15 AM 59.0 °F 46.4 °F 63% 30.06 in 10.0 mi North - - N/A   Clear
12:35 AM 60.8 °F 46.4 °F 59% 30.06 in 10.0 mi North - - N/A   Clear
12:55 AM 59.0 °F 46.4 °F 63% 30.06 in 10.0 mi North - - N/A   Clear
1:15 AM 57.2 °F 46.4 °F 67% 30.06 in 10.0 mi North - - N/A   Scattered Clouds
1:35 AM 57.2 °F 46.4 °F 67% 30.06 in 10.0 mi North - - N/A   Scattered Clouds
1:55 AM 57.2 °F 46.4 °F 67% 30.04 in 10.0 mi North - - N/A   Scattered Clouds
2:15 AM 57.2 °F 46.4 °F 67% 30.03 in 10.0 mi North - - N/A   Clear
2:35 AM 57.2 °F 46.4 °F 67% 30.03 in 10.0 mi North - - N/A   Clear
2:55 AM 57.2 °F 46.4 °F 67% 30.04 in 10.0 mi North - - N/A   Clear
3:15 AM 55.4 °F 46.4 °F 72% 30.04 in 10.0 mi North - - N/A   Clear
3:35 AM 57.2 °F 46.4 °F 67% 30.03 in 10.0 mi North - - N/A   Clear
3:55 AM 57.2 °F 46.4 °F 67% 30.03 in 10.0 mi North - - N/A   Clear
4:15 AM 55.4 °F 46.4 °F 72% 30.04 in 10.0 mi North - - N/A   Clear
4:35 AM 55.4 °F 46.4 °F 72% 30.03 in 10.0 mi North - - N/A   Clear
4:55 AM 53.6 °F 46.4 °F 77% 30.03 in 10.0 mi North - - N/A   Clear
5:15 AM 53.6 °F 46.4 °F 77% 30.01 in 10.0 mi North - - N/A   Clear
5:35 AM 55.4 °F 46.4 °F 72% 30.01 in 10.0 mi North - - N/A   Clear
5:55 AM 55.4 °F 46.4 °F 72% 30.01 in 10.0 mi North - - N/A   Clear
6:15 AM 55.4 °F 48.2 °F 77% 30.00 in 10.0 mi North - - N/A   Clear
6:35 AM 55.4 °F 48.2 °F 77% 30.01 in 10.0 mi North - - N/A   Scattered Clouds
6:55 AM 57.2 °F 48.2 °F 72% 30.02 in 10.0 mi North - - N/A   Overcast
7:15 AM 57.2 °F 48.2 °F 72% 30.02 in 10.0 mi North - - N/A   Mostly Cloudy
7:35 AM 57.2 °F 50.0 °F 77% 30.02 in 10.0 mi North - - N/A   Clear
7:55 AM 57.2 °F 50.0 °F 77% 30.01 in 10.0 mi North - - N/A   Clear
8:15 AM 59.0 °F 50.0 °F 72% 30.01 in 10.0 mi North - - N/A   Clear
8:35 AM 59.0 °F 51.8 °F 77% 30.01 in 10.0 mi North - - N/A   Clear
8:55 AM 59.0 °F 51.8 °F 77% 30.02 in 10.0 mi North - - N/A   Scattered Clouds
9:15 AM 59.0 °F 51.8 °F 77% 30.02 in 10.0 mi North - - N/A   Scattered Clouds
9:35 AM 59.0 °F 53.6 °F 82% 30.02 in 10.0 mi North - - N/A Rain Rain
9:55 AM 59.0 °F 53.6 °F 82% 30.02 in 10.0 mi North - - N/A   Scattered Clouds
10:15 AM 60.8 °F 53.6 °F 77% 30.02 in 10.0 mi North - - N/A   Mostly Cloudy
10:35 AM 59.0 °F 53.6 °F 82% 30.04 in 10.0 mi North - - N/A   Mostly Cloudy
10:55 AM 59.0 °F 53.6 °F 82% 30.03 in 10.0 mi North - - N/A Rain Light Rain
11:15 AM 59.0 °F 55.4 °F 88% 30.04 in 4.0 mi North - - 0.04 in Rain Rain
11:35 AM 59.0 °F 55.4 °F 88% 30.03 in 10.0 mi North - - 0.05 in Rain Rain
11:55 AM 60.8 °F 57.2 °F 88% 30.00 in 10.0 mi North - - 0.05 in Rain Rain
12:15 PM 60.8 °F 57.2 °F 88% 29.98 in 10.0 mi North - - N/A   Scattered Clouds
12:35 PM 62.6 °F 57.2 °F 82% 29.97 in 10.0 mi North - - N/A   Mostly Cloudy
12:55 PM 62.6 °F 57.2 °F 82% 29.96 in 10.0 mi North - - N/A   Overcast
1:15 PM 62.6 °F 57.2 °F 82% 29.96 in 10.0 mi North - - N/A Rain Light Rain
1:35 PM 62.6 °F 59.0 °F 88% 29.95 in 10.0 mi North - - 0.01 in Rain Light Rain
1:55 PM 62.6 °F 59.0 °F 88% 29.93 in 10.0 mi North - - 0.01 in Rain Light Rain
2:15 PM 62.6 °F 59.0 °F 88% 29.93 in 10.0 mi North - - N/A   Overcast
2:35 PM 62.6 °F 57.2 °F 82% 29.92 in 10.0 mi North - - 0.01 in Rain Light Rain
2:55 PM 62.6 °F 59.0 °F 88% 29.91 in 7.0 mi North - - 0.01 in   Mostly Cloudy
3:15 PM 64.4 °F 60.8 °F 88% 29.90 in 10.0 mi North - - N/A   Mostly Cloudy
3:35 PM 64.4 °F 60.8 °F 88% 29.89 in 10.0 mi North - - N/A   Mostly Cloudy
3:55 PM 64.4 °F 60.8 °F 88% 29.87 in 10.0 mi North - - N/A   Mostly Cloudy
4:15 PM 66.2 °F 60.8 °F 83% 29.86 in 10.0 mi North - - N/A   Mostly Cloudy
4:35 PM 66.2 °F 60.8 °F 83% 29.85 in 10.0 mi North - - N/A   Overcast
4:55 PM 66.2 °F 60.8 °F 83% 29.84 in 10.0 mi North - - N/A   Overcast
5:15 PM 66.2 °F 60.8 °F 83% 29.84 in 10.0 mi North - - N/A   Overcast
5:35 PM 66.2 °F 60.8 °F 83% 29.83 in 10.0 mi North - - N/A Rain Rain
5:55 PM 68.0 °F 57.2 °F 68% 29.83 in 10.0 mi North - - N/A   Overcast
6:15 PM 68.0 °F 57.2 °F 68% 29.82 in 10.0 mi North - - N/A Thunderstorm Overcast
6:35 PM 66.2 °F 59.0 °F 78% 29.82 in 10.0 mi North - - N/A Rain Rain
6:55 PM 66.2 °F 57.2 °F 73% 29.81 in 10.0 mi North - - N/A Thunderstorm Thunderstorm
7:15 PM 68.0 °F 57.2 °F 68% 29.81 in 10.0 mi North - - N/A   Overcast
7:35 PM 68.0 °F 57.2 °F 68% 29.80 in 10.0 mi North - - N/A Thunderstorm Thunderstorm
7:55 PM 68.0 °F 57.2 °F 68% 29.80 in 10.0 mi North - - N/A   Overcast
8:15 PM 66.2 °F 57.2 °F 73% 29.80 in 10.0 mi North - - N/A Rain Rain
8:35 PM 60.8 °F 57.2 °F 88% 29.83 in 5.0 mi North - - N/A Rain , Thunderstorm Rain
8:55 PM 53.6 °F 51.8 °F 94% 29.86 in 7.0 mi North - - 0.02 in Rain Rain
9:15 PM 51.8 °F 48.2 °F 88% 29.90 in 10.0 mi North - - 0.03 in Rain Light Rain
9:35 PM 48.2 °F 46.4 °F 93% 29.90 in 10.0 mi North - - 0.03 in   Light Drizzle
9:55 PM 46.4 °F 44.6 °F 93% 29.90 in 10.0 mi North - - 0.03 in   Overcast
10:15 PM 46.4 °F 44.6 °F 93% 29.92 in 10.0 mi North - - N/A   Overcast
10:35 PM 46.4 °F 42.8 °F 87% 29.92 in 10.0 mi North - - 0.01 in Rain Rain
10:55 PM 46.4 °F 42.8 °F 87% 29.92 in 7.0 mi North - - 0.02 in Rain Rain
11:15 PM 46.4 °F 42.8 °F 87% 29.92 in 10.0 mi North - - 0.01 in   Drizzle
11:35 PM 44.6 °F 42.8 °F 93% 29.92 in 4.0 mi North - - 0.02 in Rain , Thunderstorm Rain
11:55 PM 44.6 °F 42.8 °F 93% 29.93 in 3.0 mi North - - 0.07 in Rain Heavy Rain